Regional Weather Roundup
Issued by NWS

Home | Current Version | Previous Version | Text Only | Print | Product List | Glossary Off
Versions: 1 2 3 4 5 6 7 8 9 10 11 12 13 14 15 16 17 18 19 20 21 22 23 24 25 26 27 28 29 30 31 32 33 34 35 36 37 38 39 40 41 42 43 44 45 46 47 48 49 50

000
ASUS44 KMEG 301210
RWRTN
TENNESSEE HOURLY STATE WEATHER ROUNDUP
NATIONAL WEATHER SERVICE MEMPHIS TN
700 AM CDT SAT MAY 30 2015

TNZ002-004-019-021-049-052-054-088>092-301300-
WEST TENNESSEE

CITY           SKY/WX    TMP DP  RH WIND       PRES   REMARKS
MEMPHIS INTL   PTSUNNY   71  68  90 S8        30.01R
NWS MEMPHIS      N/A     70 N/A N/A MISG        N/A
JACKSON        MOSUNNY   72  67  84 S8        30.03R
DYERSBURG      PTSUNNY   72  55  56 CALM      30.00R
PARIS          MOSUNNY   70  66  88 S10       30.03R
LEXINGTON      CLOUDY    70  66  88 S5        30.04S
$$

TNZ008-025-027-028-033-062-065-066-301300-
NORTH MIDDLE TENNESSEE

CITY           SKY/WX    TMP DP  RH WIND       PRES   REMARKS
NASHVILLE      MOSUNNY   71  65  81 S10       30.09R
CLARKSVILLE    PTSUNNY   71  66  84 S8        30.04F
SMYRNA         SUNNY     71  66  84 S7        30.10S
COOKEVILLE     CLOUDY    72  66  83 VRB6        N/A
CROSSVILLE     PTSUNNY   68  62  81 S3        30.19S
$$

TNZ061-075-076-078-094-096-097-301300-
SOUTH MIDDLE TENNESSEE

CITY           SKY/WX    TMP DP  RH WIND       PRES   REMARKS
FAYETTEVILLE   SUNNY    N/A N/A N/A MISG      30.12S
TULLAHOMA      SUNNY     70  63  78 SE5       30.14S
WINCHESTER     SUNNY     72  64  78 S7        30.14S
MCMINNVILLE    SUNNY     70  68  94 E9        30.14R SQUALL
COLUMBIA       MOSUNNY   72  68  88 S5        30.07S
SHELBYVILLE    SUNNY     72  66  83 SE3       30.11F
$$

TNZ017-018-042-046-047-301300-
NORTHEAST TENNESSEE

CITY           SKY/WX    TMP DP  RH WIND       PRES   REMARKS
TRI CITIES     MOSUNNY   66  63  90 CALM      30.22R
ELIZABETHTON   SUNNY     64  61  88 NE3       30.23R
$$

TNZ012-013-036-069-073-074-301300-
CENTRAL EAST TENNESSEE

CITY           SKY/WX    TMP DP  RH WIND       PRES   REMARKS
KNOXVILLE      PTSUNNY   65  64  97 E6        30.17R
OAK RIDGE      PTSUNNY   70  66  87 CALM      30.19R
GATLINBURG     CLOUDY    63  63 100 CALM      30.19R VSB 1/2
MORRISTOWN     SUNNY     66  64  94 E6        30.21R
$$

TNZ083-085-099-301300-
SOUTHEAST TENNESSEE

CITY           SKY/WX    TMP DP  RH WIND       PRES   REMARKS
CHATTANOOGA    PTSUNNY   69  64  84 CALM      30.17R FOG
$$

SKY/WX REPORTED AS FAIR MEANS FEW OR NO CLOUDS BELOW
12 THOUSAND FEET.



USA.gov is the U.S. government's official web portal to all federal, state and local government web resources and services.